TimeCDT,TemperatureF,Dew PointF,Humidity,Sea Level PressureIn,VisibilityMPH,Wind Direction,Wind SpeedMPH,Gust SpeedMPH,PrecipitationIn,Events,Conditions,WindDirDegrees,DateUTC
12:53 AM,64.9,55.0,70,29.96,10.0,Calm,Calm,-,N/A,,Clear,0,2011-10-17 05:53:00
1:53 AM,64.0,55.0,73,29.96,10.0,Calm,Calm,-,N/A,,Clear,0,2011-10-17 06:53:00
2:53 AM,64.9,55.9,73,29.95,10.0,South,5.8,-,N/A,,Clear,180,2011-10-17 07:53:00
3:53 AM,64.9,57.9,78,29.94,10.0,South,3.5,-,N/A,,Clear,170,2011-10-17 08:53:00
4:53 AM,64.9,59.0,81,29.93,10.0,South,5.8,-,N/A,,Clear,180,2011-10-17 09:53:00
5:53 AM,64.9,60.1,84,29.92,10.0,South,5.8,-,N/A,,Clear,180,2011-10-17 10:53:00
6:53 AM,64.0,62.1,93,29.92,7.0,South,8.1,-,N/A,,Clear,180,2011-10-17 11:53:00
7:53 AM,64.0,62.1,93,29.91,6.0,South,4.6,-,N/A,,Clear,190,2011-10-17 12:53:00
8:53 AM,68.0,63.0,84,29.91,9.0,South,8.1,-,N/A,,Clear,190,2011-10-17 13:53:00
9:53 AM,73.0,63.0,71,29.91,10.0,SSW,6.9,16.1,N/A,,Clear,210,2011-10-17 14:53:00
10:53 AM,78.1,63.0,60,29.90,10.0,SSW,11.5,20.7,N/A,,Clear,210,2011-10-17 15:53:00
11:53 AM,81.0,62.1,52,29.87,10.0,South,12.7,23.0,N/A,,Clear,190,2011-10-17 16:53:00
12:53 PM,84.9,62.1,46,29.83,10.0,SSW,9.2,18.4,N/A,,Clear,200,2011-10-17 17:53:00
1:53 PM,86.0,60.1,41,29.78,10.0,SSW,16.1,21.9,N/A,,Clear,210,2011-10-17 18:53:00
2:53 PM,88.0,61.0,40,29.74,10.0,SSW,12.7,20.7,N/A,,Clear,200,2011-10-17 19:53:00
3:53 PM,88.0,60.1,39,29.72,10.0,South,11.5,20.7,N/A,,Clear,170,2011-10-17 20:53:00
4:53 PM,88.0,59.0,37,29.70,10.0,South,15.0,20.7,N/A,,Clear,190,2011-10-17 21:53:00
5:53 PM,87.1,60.1,40,29.69,10.0,South,16.1,21.9,N/A,,Clear,180,2011-10-17 22:53:00
6:53 PM,84.9,61.0,44,29.69,10.0,South,12.7,18.4,N/A,,Clear,180,2011-10-17 23:53:00
7:53 PM,82.0,60.1,47,29.70,10.0,South,9.2,-,N/A,,Clear,180,2011-10-18 00:53:00
8:53 PM,79.0,60.1,52,29.70,10.0,South,9.2,-,N/A,,Clear,190,2011-10-18 01:53:00
9:53 PM,77.0,60.1,56,29.68,10.0,South,8.1,-,N/A,,Clear,180,2011-10-18 02:53:00
10:53 PM,75.9,60.1,58,29.69,10.0,South,4.6,-,N/A,,Clear,180,2011-10-18 03:53:00
11:53 PM,73.9,60.1,62,29.75,10.0,NW,3.5,-,N/A,,Clear,310,2011-10-18 04:53:00